Chillicothe, MO

6:11 PM CDT on April 27, 2017 (GMT -0500)
Chillicothe

Weather History for KCDJ - January, 2013

Change the Weather History Date:

Sunday, January 13, 2013

  Actual Average (KIRK) Record (KIRK)
Temperature  
Mean Temperature 18 °F -  
Max Temperature 25 °F 33 °F 60 °F (1961)
Min Temperature 12 °F 14 °F -9 °F (1918)
Degree Days  
Heating Degree Days 46    
Moisture  
Dew Point 7 °F    
Average Humidity 64    
Maximum Humidity 84    
Minimum Humidity 53    
Precipitation  
Precipitation 0.00 in - - ()
Sea Level Pressure  
Sea Level Pressure 30.28 in    
Wind  
Wind Speed 7 mph (NW)    
Max Wind Speed 14 mph    
Max Gust Speed 21 mph    
Averages and records for this station are not official NWS values.
T = Trace of Precipitation, MM = Missing Value Source: NWS Daily Summary

Daily Weather History Graph

Daily Weather History Graph

Search for Another Location

Airport or City:

Trip Planner

Search our weather history database for the weather conditions in past years. The results will help you decide how hot, cold, wet, or windy it might be!

Date:

Astronomy

Jan. 13, 2013 Rise Set
Actual Time 7:34 AM CST 5:12 PM CST
Civil Twilight 7:04 AM CST 5:41 PM CST
Nautical Twilight 6:31 AM CST 6:15 PM CST
Astronomical Twilight 5:58 AM CST 6:47 PM CST
Moon 8:33 AM CST (1/13) 7:51 PM CST (1/13)
Length of Visible Light 10h 37m
Length of Day
9h 37m
Waxing Crescent, 5% of the Moon is Illuminated
Jan 13
Waxing Crescent
Jan 18
First Quarter
Jan 26
Full
Feb 3
Last Quarter
Feb 10
New

Hourly Weather History & Observations

Time (CST) Temp. Windchill Dew Point Humidity Pressure Visibility Wind Dir Wind Speed Gust Speed Precip Events Conditions
12:52 AM 21.0 °F 14.6 °F 12.0 °F 68% 30.13 in - NW 4.6 mph - N/A   Unknown
1:52 AM 19.0 °F 9.0 °F 10.0 °F 68% 30.15 in - North 8.1 mph - N/A   Unknown
2:52 AM 18.0 °F 6.1 °F 8.1 °F 65% 30.17 in - NNW 10.4 mph 18.4 mph N/A   Unknown
3:52 AM 18.0 °F 11.1 °F 9.0 °F 68% 30.15 in - North 4.6 mph - N/A   Unknown
4:52 AM 17.1 °F 5.0 °F 7.0 °F 65% 30.17 in - NNW 10.4 mph 17.3 mph N/A   Unknown
5:52 AM 15.1 °F 6.4 °F 6.1 °F 68% 30.21 in - Variable 5.8 mph - N/A   Unknown
6:52 AM 14.0 °F 6.5 °F 6.1 °F 71% - - NW 4.6 mph - N/A   Unknown
7:52 AM 16.0 °F 6.3 °F 7.0 °F 68% 30.26 in - NW 6.9 mph - N/A   Unknown
8:52 AM 14.0 °F -0.2 °F 3.0 °F 62% 30.26 in - NW 12.7 mph 20.7 mph N/A   Unknown
9:52 AM 16.0 °F 5.3 °F 3.9 °F 59% - - NW 8.1 mph 18.4 mph N/A   Unknown
10:52 AM 18.0 °F 5.4 °F 5.0 °F 57% 30.30 in - WNW 11.5 mph 18.4 mph N/A   Unknown
11:52 AM 18.0 °F 5.4 °F 5.0 °F 57% 30.29 in - NW 11.5 mph 17.3 mph N/A   Unknown
12:52 PM 21.0 °F 10.6 °F 7.0 °F 55% 30.27 in - WNW 9.2 mph - N/A   Unknown
1:52 PM 21.9 °F 9.2 °F 8.1 °F 55% 30.28 in - WNW 13.8 mph 19.6 mph N/A   Unknown
2:52 PM 24.1 °F 14.4 °F 9.0 °F 53% 30.29 in - West 9.2 mph 20.7 mph N/A   Unknown
3:52 PM 25.0 °F 16.3 °F 10.0 °F 53% 30.31 in - NW 8.1 mph - N/A   Unknown
4:52 PM 23.0 °F 13.1 °F 9.0 °F 55% 30.33 in - WNW 9.2 mph - N/A   Unknown
5:52 PM 21.9 °F 13.4 °F 9.0 °F 58% 30.35 in - WNW 6.9 mph - N/A   Unknown
6:52 PM 19.9 °F - 7.0 °F 57% - - Calm Calm - N/A   Unknown
7:52 PM 17.1 °F - 8.1 °F 68% 30.37 in - Calm Calm - N/A   Unknown
8:52 PM 16.0 °F - 8.1 °F 71% 30.39 in - Calm Calm - N/A   Unknown
9:52 PM 12.9 °F - 7.0 °F 77% 30.40 in - Calm Calm - N/A   Unknown
10:52 PM 12.0 °F - 8.1 °F 84% - - Calm Calm - N/A   Unknown
11:52 PM 12.0 °F - 7.0 °F 80% 30.44 in - Calm Calm - N/A   Unknown